[[{"header":{"parameterUnit":"m.s-1","parameterCategory":1,"la1":30.2991,"la2":30.254,"lo1":-89.0895,"lo2":-89.0444,"dy":0.0017,"dx":0.0017,"nx":28,"ny":28,"refTime":"2024-02-17T03:00:00:Z","depth":0,"parameterNumber":2,"parameterNumberName":"U-component_of_WINDS"},"data":[0,0,0,0,0,0,0,0,0,0,0,0,0,0,0,0,0,0,0,0,0,0,0,0,0,0,0,0,0,0,0,0,0,0,0,0,0,0,0,0,0,0,0,0,0,0,0,0,0,0,0,0,0,0,0,0,0,0,-0.5897,-0.5898,0,-0.5944,-0.5945,-0.5945,-0.5927,-0.5926,-0.5925,-0.5924,-0.5974,-0.5977,-0.5979,0,0,0,0,0,0,0,0,0,0,0,0,0,-0.5794,-0.5796,-0.5897,-0.5898,-0.5899,-0.5944,-0.5945,-0.5945,-0.5927,-0.5926,-0.5925,-0.5923,-0.5974,-0.5976,-0.5979,0,0,0,0,0,0,0,0,0,0,0,0,0,-0.584,-0.5797,-0.5897,-0.5895,-0.5895,-0.5944,-0.5945,-0.5946,-0.5928,-0.5926,-0.5924,-0.5923,-0.5973,-0.5976,-0.598,-0.6034,0,0,-0.599,-0.5992,0,0,0,0,0,0,0,0,-0.5837,-0.5844,-0.5895,-0.5895,-0.5896,-0.5928,-0.5927,-0.5975,-0.5928,-0.5915,-0.5924,-0.5922,-0.596,-0.5965,-0.5977,-0.6037,-0.6039,-0.5991,-0.5993,-0.5994,-0.5995,0,0,0,0,0,0,0,-0.5834,-0.5841,-0.5916,-0.5895,-0.5896,-0.5892,-0.5897,-0.5936,-0.5947,-0.5916,-0.5915,-0.5921,-0.596,-0.5974,-0.5978,-0.604,-0.5991,-0.5994,-0.5996,-0.5997,-0.6146,-0.6148,0,0,0,0,0,0,-0.583,-0.5839,-0.5914,-0.5917,-0.5862,-0.5895,-0.5901,-0.5919,-0.5946,-0.5949,-0.5922,-0.592,-0.5969,-0.5974,-0.598,-0.6046,-0.5994,-0.5998,-0.6,-0.6144,-0.6147,-0.6149,0,0,0,0,0,0,-0.5828,-0.5837,-0.5913,-0.5878,-0.5887,-0.5899,-0.592,-0.5921,-0.5935,-0.595,-0.5953,-0.5934,-0.5968,-0.5975,-0.6021,-0.6048,-0.5999,-0.6003,-0.6142,-0.6145,-0.6148,-0.6179,0,0,0,0,0,0,-0.5825,-0.5837,-0.5857,-0.5878,-0.5889,-0.5952,-0.5922,-0.5923,-0.5941,-0.5938,-0.5962,-0.5965,-0.5967,-0.6016,-0.6024,-0.6052,-0.6005,-0.614,-0.6144,-0.6147,-0.6176,-0.6182,-0.6188,0,0,0,0,0,-0.5822,-0.5865,-0.5858,-0.5868,-0.5915,-0.5954,-0.596,-0.5961,-0.5943,-0.5964,-0.5974,-0.5964,-0.6043,-0.602,-0.603,-0.6059,-0.6138,-0.6143,-0.6147,-0.6173,-0.6181,-0.6188,0,0,0,0,0,0,-0.5847,-0.5867,-0.5861,-0.5911,-0.5931,-0.595,-0.5977,-0.597,-0.5995,-0.5992,-0.5993,-0.5999,-0.6046,-0.6057,-0.6031,-0.6113,-0.6088,-0.6094,-0.6105,-0.6113,-0.6119,-0.6116,-0.6008,0,0,0,0,0,-0.5859,-0.5888,-0.5904,-0.5947,-0.5957,-0.5966,-0.5983,-0.5982,-0.6002,-0.6011,-0.6024,-0.6045,-0.6074,-0.6094,-0.6122,-0.6177,-0.6182,-0.6201,-0.6208,-0.6213,-0.6219,-0.6249,-0.6258,-0.6162,-0.6162,-0.6162,0,0,-0.5883,-0.5897,-0.5916,-0.5953,-0.5968,-0.5999,-0.5973,-0.6006,-0.603,-0.6016,-0.606,-0.607,-0.6094,-0.6144,-0.6167,-0.6155,-0.6246,-0.6218,-0.6222,-0.6225,-0.6254,-0.6263,-0.6271,-0.6165,-0.6164,-0.6164,0,0,-0.5943,-0.5956,-0.5994,-0.6009,-0.6032,-0.6037,-0.6046,-0.6067,-0.6073,-0.6117,-0.6107,-0.6135,-0.6186,-0.6203,-0.6218,-0.6284,-0.6276,-0.6293,-0.6327,-0.6356,-0.6363,-0.637,-0.6394,-0.6403,-0.6298,-0.6298,-0.6298,0,-0.597,-0.6016,-0.6015,-0.6049,-0.6066,-0.6054,-0.6092,-0.6107,-0.6139,-0.6151,-0.6136,-0.62,-0.6214,-0.6269,-0.6285,-0.6297,-0.6308,-0.6291,-0.6362,-0.6369,-0.6375,-0.6398,-0.6407,-0.63,-0.63,-0.63,-0.63,0,-0.6049,-0.6081,-0.6108,-0.6138,-0.6158,-0.6194,-0.6199,-0.6219,-0.6216,-0.6223,-0.6268,-0.6285,-0.6317,-0.6329,-0.6327,-0.6383,-0.6375,-0.6361,-0.6336,-0.6386,-0.6408,-0.6417,-0.6303,-0.6303,-0.6302,-0.6301,0,0,-0.6128,-0.6155,-0.6165,-0.6179,-0.6202,-0.6227,-0.6263,-0.6293,-0.6311,-0.6332,-0.6363,-0.6406,-0.6393,-0.641,-0.641,-0.6435,-0.6487,-0.6419,-0.6419,-0.6432,-0.6551,-0.6562,-0.6572,-0.6481,-0.6483,-0.6484,-0.6549,0,-0.619,-0.6253,-0.6252,-0.631,-0.634,-0.6328,-0.636,-0.6378,-0.6385,-0.6412,-0.6419,-0.645,-0.6431,-0.6441,-0.6466,-0.6476,-0.6511,-0.6471,-0.6511,-0.6512,-0.6506,-0.6583,-0.6595,-0.6656,-0.6558,-0.6559,-0.656,0,-0.6272,-0.6295,-0.6356,-0.6375,-0.6388,-0.6416,-0.6443,-0.6468,-0.6489,-0.6492,-0.6511,-0.6507,-0.6544,-0.6516,-0.6568,-0.654,-0.6556,-0.6564,-0.6566,-0.6571,-0.654,-0.6591,-0.6675,-0.6685,-0.6573,-0.6572,-0.6571,0,-0.6324,-0.6371,-0.6413,-0.6425,-0.6448,-0.6468,-0.6479,-0.6498,-0.6516,-0.6539,-0.6551,-0.6579,-0.6595,-0.6617,-0.6621,-0.66,-0.6673,-0.6645,-0.6677,-0.6677,-0.6694,-0.6693,-0.6783,-0.6703,-0.6703,-0.6702,-0.6702,0,-0.6395,-0.6433,-0.6437,-0.6463,-0.6506,-0.6505,-0.6547,-0.6556,-0.6572,-0.6601,-0.6592,-0.6619,-0.6621,-0.6649,-0.6652,-0.6694,-0.6701,-0.6705,-0.6706,-0.6707,-0.6707,-0.6718,-0.6715,-0.6705,-0.6704,-0.6704,-0.6703,0,-0.6461,-0.6465,-0.6511,-0.6529,-0.6534,-0.6565,-0.658,-0.6605,-0.6611,-0.6647,-0.6655,-0.6665,-0.6697,-0.6702,-0.674,-0.6741,-0.6793,-0.6788,-0.6786,-0.6786,-0.6818,-0.6815,-0.6919,-0.6933,-0.6843,-0.6844,-0.6844,0,-0.6506,-0.6535,-0.6556,-0.6574,-0.6585,-0.6614,-0.6632,-0.6632,-0.6652,-0.6677,-0.6699,-0.673,-0.6755,-0.6807,-0.6818,-0.6847,-0.6844,-0.6878,-0.6848,-0.6848,-0.6845,-0.6844,-0.6847,-0.6884,-0.6885,-0.6886,-0.6887,0,-0.6586,-0.6587,-0.6613,-0.664,-0.6661,-0.6683,-0.6703,-0.6718,-0.6721,-0.6743,-0.6775,-0.6795,-0.6833,-0.6864,-0.6892,-0.6904,-0.6896,-0.6896,-0.6905,-0.6907,-0.6904,-0.6907,-0.6803,-0.6894,-0.6893,-0.6893,-0.6892,-0.6892,-0.6644,-0.6669,-0.6688,-0.6717,-0.6732,-0.6751,-0.6775,-0.6784,-0.6811,-0.6841,-0.684,-0.6876,-0.6895,-0.6932,-0.6946,-0.6974,-0.6963,-0.6976,-0.698,-0.6983,-0.6986,-0.6899,-0.6979,-0.6979,-0.6979,-0.6979,-0.6978,0,-0.6725,-0.6736,-0.6763,-0.6791,-0.6814,-0.6803,-0.6825,-0.6845,-0.6876,-0.6895,-0.6919,-0.6956,-0.6986,-0.6999,-0.7028,-0.7049,-0.7046,-0.7056,-0.7056,-0.7059,-0.6994,-0.6984,-0.7058,-0.7058,-0.7058,-0.7058,-0.7058,-0.7058,-0.677,-0.6812,-0.6814,-0.6864,-0.6875,-0.6909,-0.6922,-0.694,-0.6955,-0.6996,-0.7021,-0.7028,-0.7045,-0.7075,-0.7102,-0.7105,-0.7117,-0.7129,-0.7131,-0.7071,-0.7063,-0.7055,-0.7046,-0.7132,-0.7132,-0.7193,-0.7193,-0.7194]},{"header":{"parameterUnit":"m.s-1","parameterCategory":1,"la1":30.2991,"la2":30.254,"lo1":-89.0895,"lo2":-89.0444,"dy":0.0017,"dx":0.0017,"nx":28,"ny":28,"refTime":"2024-02-17T03:00:00:Z","depth":0,"parameterNumber":3,"parameterNumberName":"V-component_of_WINDS"},"data":[0,0,0,0,0,0,0,0,0,0,0,0,0,0,0,0,0,0,0,0,0,0,0,0,0,0,0,0,0,0,0,0,0,0,0,0,0,0,0,0,0,0,0,0,0,0,0,0,0,0,0,0,0,0,0,0,0,0,-9.1577,-9.1578,0,-9.1722,-9.1723,-9.1725,-9.1646,-9.1642,-9.1638,-9.1634,-9.1774,-9.1781,-9.1789,0,0,0,0,0,0,0,0,0,0,0,0,0,-9.1224,-9.1231,-9.1577,-9.1578,-9.158,-9.1721,-9.1723,-9.1725,-9.1646,-9.1642,-9.1637,-9.1632,-9.1772,-9.1781,-9.1789,0,0,0,0,0,0,0,0,0,0,0,0,0,-9.1374,-9.1233,-9.1576,-9.1558,-9.1558,-9.1721,-9.1723,-9.1726,-9.1647,-9.1642,-9.1636,-9.163,-9.1769,-9.178,-9.1791,-9.1977,0,0,-9.1825,-9.1829,0,0,0,0,0,0,0,0,-9.1365,-9.1387,-9.1559,-9.156,-9.156,-9.166,-9.165,-9.181,-9.1649,-9.1613,-9.1634,-9.1627,-9.174,-9.1753,-9.1793,-9.1984,-9.199,-9.1826,-9.1832,-9.1837,-9.184,0,0,0,0,0,0,0,-9.1355,-9.138,-9.1634,-9.1561,-9.1562,-9.154,-9.1555,-9.168,-9.1708,-9.1616,-9.1611,-9.1629,-9.1739,-9.1783,-9.1796,-9.1992,-9.1825,-9.1835,-9.1842,-9.1846,-9.2343,-9.235,0,0,0,0,0,0,-9.1347,-9.1372,-9.1629,-9.1638,-9.1446,-9.1551,-9.1568,-9.1633,-9.1706,-9.1712,-9.1634,-9.1625,-9.1767,-9.1783,-9.1801,-9.2025,-9.1837,-9.1847,-9.1854,-9.2337,-9.2345,-9.2352,0,0,0,0,0,0,-9.134,-9.1371,-9.1623,-9.1504,-9.1534,-9.1564,-9.1638,-9.1639,-9.1683,-9.172,-9.1724,-9.1674,-9.1763,-9.1785,-9.1935,-9.2028,-9.1852,-9.1862,-9.2329,-9.2339,-9.2348,-9.2474,0,0,0,0,0,0,-9.133,-9.1369,-9.1441,-9.1506,-9.1541,-9.1758,-9.1644,-9.1647,-9.1703,-9.1693,-9.1759,-9.1764,-9.176,-9.1919,-9.1946,-9.2041,-9.1871,-9.2321,-9.2334,-9.2345,-9.2462,-9.2487,-9.2509,0,0,0,0,0,-9.1318,-9.1469,-9.1446,-9.1477,-9.1633,-9.1763,-9.1783,-9.1778,-9.1711,-9.1784,-9.1808,-9.1762,-9.2014,-9.1935,-9.1965,-9.2064,-9.2315,-9.233,-9.2344,-9.2451,-9.2482,-9.2508,0,0,0,0,0,0,-9.1411,-9.1477,-9.1452,-9.1629,-9.1692,-9.175,-9.1841,-9.181,-9.1891,-9.1877,-9.1864,-9.188,-9.2036,-9.2065,-9.1975,-9.2249,-9.2154,-9.2175,-9.2225,-9.2254,-9.2277,-9.2267,-9.188,0,0,0,0,0,-9.1453,-9.1556,-9.1606,-9.1758,-9.1791,-9.1811,-9.1867,-9.1858,-9.1921,-9.1946,-9.1981,-9.2042,-9.2135,-9.2196,-9.2283,-9.2465,-9.2478,-9.2548,-9.2572,-9.2591,-9.261,-9.2708,-9.274,-9.24,-9.24,-9.24,0,0,-9.1539,-9.1588,-9.1653,-9.1778,-9.1825,-9.193,-9.1833,-9.1947,-9.2024,-9.1962,-9.2107,-9.2135,-9.2202,-9.2369,-9.2444,-9.2397,-9.2707,-9.261,-9.2625,-9.2633,-9.2727,-9.2759,-9.2788,-9.241,-9.2408,-9.2407,0,0,-9.175,-9.1798,-9.193,-9.198,-9.2054,-9.2067,-9.2099,-9.2162,-9.218,-9.2325,-9.2281,-9.2371,-9.2531,-9.2581,-9.2627,-9.286,-9.282,-9.2888,-9.301,-9.3107,-9.3134,-9.3157,-9.324,-9.327,-9.2906,-9.2907,-9.2907,0,-9.1847,-9.2006,-9.2,-9.212,-9.2176,-9.2128,-9.2261,-9.2308,-9.2406,-9.2445,-9.2392,-9.2594,-9.2635,-9.2813,-9.2871,-9.2909,-9.2944,-9.288,-9.3131,-9.3155,-9.3176,-9.3255,-9.3287,-9.2914,-9.2914,-9.2913,-9.2912,0,-9.2121,-9.2232,-9.2329,-9.2429,-9.2496,-9.2621,-9.2633,-9.2701,-9.2687,-9.2704,-9.2853,-9.2901,-9.2998,-9.304,-9.3025,-9.3217,-9.3186,-9.3132,-9.3036,-9.3217,-9.3291,-9.3321,-9.2926,-9.2923,-9.292,-9.2919,0,0,-9.2394,-9.2492,-9.2528,-9.2573,-9.2652,-9.2736,-9.2859,-9.2957,-9.3015,-9.3084,-9.3186,-9.3324,-9.3276,-9.3328,-9.3319,-9.3404,-9.3585,-9.3339,-9.3341,-9.3384,-9.3799,-9.3839,-9.3874,-9.3559,-9.3565,-9.357,-9.3793,0,-9.2611,-9.2829,-9.2829,-9.3029,-9.3131,-9.3088,-9.3194,-9.3253,-9.3273,-9.336,-9.338,-9.3479,-9.3408,-9.3439,-9.3522,-9.3546,-9.3668,-9.3529,-9.3652,-9.3657,-9.3637,-9.3913,-9.3955,-9.4164,-9.3822,-9.3827,-9.3831,0,-9.2893,-9.2975,-9.3187,-9.3253,-9.3296,-9.3392,-9.3483,-9.3567,-9.3633,-9.3641,-9.3702,-9.3679,-9.3802,-9.3703,-9.3871,-9.3777,-9.3827,-9.3846,-9.3854,-9.3865,-9.3755,-9.3932,-9.4231,-9.4262,-9.3876,-9.3872,-9.3869,0,-9.3071,-9.3235,-9.3383,-9.3423,-9.3504,-9.3572,-9.3608,-9.3668,-9.3728,-9.3806,-9.3844,-9.3934,-9.3983,-9.4053,-9.4055,-9.3983,-9.4225,-9.4126,-9.4234,-9.4234,-9.4286,-9.4283,-9.4598,-9.4319,-9.4318,-9.4318,-9.4317,0,-9.3314,-9.3445,-9.3465,-9.3556,-9.3702,-9.3699,-9.3842,-9.3871,-9.3926,-9.402,-9.3986,-9.4075,-9.4073,-9.4162,-9.4164,-9.4303,-9.4325,-9.4334,-9.4333,-9.4338,-9.4337,-9.437,-9.4356,-9.4326,-9.4324,-9.4323,-9.4321,0,-9.3538,-9.3557,-9.3716,-9.378,-9.3799,-9.3904,-9.3957,-9.4043,-9.406,-9.418,-9.4208,-9.4235,-9.4339,-9.4348,-9.4467,-9.4469,-9.4637,-9.462,-9.4616,-9.4613,-9.4721,-9.4711,-9.5069,-9.5116,-9.4806,-9.4808,-9.4811,0,-9.3691,-9.3792,-9.3868,-9.3931,-9.3972,-9.4073,-9.4135,-9.4135,-9.42,-9.4284,-9.4359,-9.4461,-9.4542,-9.4709,-9.4738,-9.4829,-9.4814,-9.4933,-9.4827,-9.4829,-9.4816,-9.481,-9.482,-9.4953,-9.4957,-9.4959,-9.4962,0,-9.3962,-9.3967,-9.4059,-9.4155,-9.4231,-9.4305,-9.4375,-9.4427,-9.4436,-9.4511,-9.4619,-9.4682,-9.4806,-9.4906,-9.4996,-9.503,-9.4998,-9.4995,-9.5025,-9.503,-9.5025,-9.503,-9.4673,-9.4987,-9.4984,-9.4982,-9.4981,-9.498,-9.4156,-9.4244,-9.4312,-9.4416,-9.4469,-9.4536,-9.462,-9.465,-9.4741,-9.4844,-9.4838,-9.4957,-9.502,-9.5138,-9.5179,-9.527,-9.523,-9.5273,-9.5284,-9.5295,-9.5306,-9.5011,-9.5286,-9.5285,-9.5285,-9.5284,-9.5284,0,-9.4425,-9.4468,-9.4564,-9.4664,-9.4746,-9.4711,-9.4787,-9.4856,-9.4963,-9.5026,-9.5108,-9.5231,-9.5329,-9.5366,-9.5461,-9.5527,-9.5515,-9.5552,-9.5547,-9.5555,-9.5336,-9.5302,-9.5561,-9.5561,-9.5561,-9.556,-9.556,-9.556,-9.4575,-9.4723,-9.4736,-9.4909,-9.495,-9.5069,-9.5116,-9.5176,-9.5226,-9.5368,-9.545,-9.5475,-9.5527,-9.5626,-9.5713,-9.5721,-9.5758,-9.5802,-9.5804,-9.5598,-9.5571,-9.5544,-9.5511,-9.581,-9.581,-9.6015,-9.6017,-9.6018]}]]